Preview of NWS' New Version of Forecast
This preview is not operational and should not be used for support decisions.

Regional Weather Roundup (RWR)

Issued by National Weather Service (NWS)

                            
000
ASUS43 KLSX 220107
RWRMO 

WEATHER SUMMARY FOR MISSOURI
NATIONAL WEATHER SERVICE SPRINGFIELD MO
800 PM CDT SUN JUL 21 2019

NOTE: "FAIR" INDICATES FEW OR NO CLOUDS BELOW 12,000 FEET WITH NO
       SIGNIFICANT WEATHER AND/OR OBSTRUCTIONS TO VISIBILITY.
       CURRENT SKY AND/OR WEATHER CONDITIONS ARE NOT AVAILABLE FOR
       CHILLICOTHE AND FARMINGTON.

MOZ001>031-035>038-043-044-053-054-220200-
...NORTHERN AND WESTERN MISSOURI...
  
CITY           SKY/WX    TMP DP  RH WIND       PRES   REMARKS
KANSAS CTY INT LGT RAIN  74  71  91 N13G28    29.99R                  
KANSAS C DTWN  MOCLDY    82  70  66 NE12G20   29.93F                  
LEE'S SUMMIT   CLOUDY    79  70  74 NE8       29.95F                  
ST JOSEPH      LGT RAIN  73  71  93 N12       30.01R                  
CHILLICOTHE      N/A     75  73  93 VRB3      30.01R                  
KIRKSVILLE     LGT RAIN  75  70  84 N10       30.01R                  
     
$$
MOZ066>068-077>081-088>096-101>105-220200-
...SOUTHWEST MISSOURI...
  
CITY           SKY/WX    TMP DP  RH WIND       PRES   REMARKS
SPRINGFIELD    PTCLDY    87  72  60 S5        29.92R HX  93           
JOPLIN         CLEAR     87  74  64 S5        29.89F HX  95           
BRANSON        PTCLDY    86  73  66 S8        29.95S HX  93           
               
$$
MOZ032>034-039>042-045>050-055>058-069>072-220200-
...CENTRAL MISSOURI...  
  
CITY           SKY/WX    TMP DP  RH WIND       PRES   REMARKS
COLUMBIA       PTCLDY    83  71  67 N9        29.94S                  
ROLLA          PTCLDY    84  72  67 N3        29.94S                  
SEDALIA        MOCLDY    78  73  84 NE7       29.94F                  
WHITEMAN AFB   LGT RAIN  80  74  82 NE9       29.89                   
WARRENSBURG    CLOUDY    79  72  78 CALM      29.93F                  
OSAGE BEACH    MOCLDY    85  75  72 S7        29.93R HX  93           
               
$$
MOZ051-052-059>065-220200-
...EAST CENTRAL MISSOURI...
  
CITY           SKY/WX    TMP DP  RH WIND       PRES   REMARKS
ST LOUIS INTL  MOCLDY    86  71  60 N7        29.91F HX  91           
SPIRIT OF STL  PTCLDY    86  72  62 NW9       29.90S HX  92           
ST CHARLES       N/A    N/A N/A N/A MISG      29.90S                  
                   
$$
MOZ072>076-082>087-097>100-106>115-220200-
...SOUTH CENTRAL AND SOUTHEAST MISSOURI...
  
CITY           SKY/WX    TMP DP  RH WIND       PRES   REMARKS
CAPE GIRARDEAU MOCLDY    85  76  74 SW3       29.89R HX  94           
FARMINGTON     CLEAR     86  76  71 NW3       29.93R HX  96           
POPLAR BLUFF   FAIR      86  79  79 S5        29.88S HX  99           
WEST PLAINS    CLEAR     85  74  69 SW3       29.95S HX  92           
                                       
$$